Location: Newark
(49.1022°N, 20.8503°E)
Time: 22:35:08
(UTC+00:00)

Envisat - Pass Details

Date: 06 October 2020
Orbit: 764 x 766 km, 98.1° (Epoch: 26 October)

Event Time Altitude Azimuth Distance (km) Brightness Sun altitude
Rises 03:19:00 0° 29° (NNE) 3,243 6.8 -14.7°
Reaches altitude 10° 03:22:19 10° 51° (NE) 2,310 6.4 -14.2°
Maximum altitude 03:25:16 15° 87° (E) 1,954 6.4 -13.7°
Drops below altitude 10° 03:28:13 10° 123° (ESE) 2,300 6.2 -13.2°
Sets 03:31:29 0° 146° (SE) 3,219 6.6 -12.7°
